Weather History for Carroll, IA

Change the Weather History Date:

Monday, March 4, 2013

  Actual Average Record
Temperature  
Mean Temperature 32 °F -  
Max Temperature 35 °F 40 °F 70 °F (1987)
Min Temperature 28 °F 20 °F -14 °F (1960)
Degree Days  
Heating Degree Days 34    
Moisture  
Dew Point 29 °F    
Average Humidity 93    
Maximum Humidity 100    
Minimum Humidity 81    
Precipitation  
Precipitation 0.00 in - - ()
Sea Level Pressure  
Sea Level Pressure 29.81 in    
Wind  
Wind Speed 16 mph (East)    
Max Wind Speed 23 mph    
Max Gust Speed 30 mph    
Visibility 7 miles    
Events      
Averages and records for this station are not official NWS values.
T = Trace of Precipitation, MM = Missing Value Source: NWS Daily Summary

Daily Weather History Graph

Daily Weather History Graph

Search for Another Location

Airport:

Trip Planner

Search our weather history database for the weather conditions in past years. The results will help you decide how hot, cold, wet, or windy it might be!

Date:

Astronomy

Mar. 04, 2013 Rise Set
Actual Time 6:48 AM CST 6:13 PM CST
Civil Twilight 6:21 AM CST 6:41 PM CST
Nautical Twilight 5:48 AM CST 7:13 PM CST
Astronomical Twilight 5:16 AM CST 7:46 PM CST
Moon 1:03 AM CST (3/4) 10:51 AM CST (3/4)
Length of Visible Light 12h 20m
Length of Day
11h 24m
Waning Gibbous, 52% of the Moon is Illuminated
Mar 4
Waning Gibbous
Mar 4
Last Quarter
Mar 11
New
Mar 19
First Quarter
Mar 27
Full

Hourly Weather History & Observations

Time (CST) Temp. Windchill Dew Point Humidity Pressure Visibility Wind Dir Wind Speed Gust Speed Precip Events Conditions
12:15 AM 28.4 °F 15.1 °F 24.8 °F 86% 29.81 in - ESE 20.7 mph - N/A   Overcast
12:35 AM 28.4 °F 14.4 °F 24.8 °F 86% 29.79 in 10.0 mi ESE 23.0 mph - N/A   Overcast
12:55 AM 28.4 °F 15.4 °F 24.8 °F 86% 29.79 in 10.0 mi SE 19.6 mph 26.5 mph N/A   Overcast
1:15 AM 28.4 °F 14.7 °F 24.8 °F 86% 29.78 in 10.0 mi SE 21.9 mph 28.8 mph N/A   Overcast
1:35 AM 28.4 °F 14.4 °F 24.8 °F 86% 29.78 in 10.0 mi ESE 23.0 mph 29.9 mph N/A   Mostly Cloudy
1:55 AM 28.4 °F 14.7 °F 24.8 °F 86% 29.78 in 10.0 mi ESE 21.9 mph 27.6 mph N/A   Partly Cloudy
2:15 AM 28.4 °F 15.4 °F 24.8 °F 86% 29.77 in 10.0 mi ESE 19.6 mph 25.3 mph N/A   Mostly Cloudy
2:35 AM 28.4 °F 15.1 °F 26.6 °F 93% 29.76 in 10.0 mi SE 20.7 mph - N/A   Overcast
2:55 AM 28.4 °F 15.4 °F 26.6 °F 93% 29.76 in 10.0 mi ESE 19.6 mph 26.5 mph N/A   Overcast
3:15 AM 28.4 °F 15.4 °F 26.6 °F 93% 29.75 in 10.0 mi SE 19.6 mph 26.5 mph N/A   Overcast
3:35 AM 28.4 °F 15.8 °F 26.6 °F 93% 29.74 in 10.0 mi SE 18.4 mph 26.5 mph N/A   Overcast
3:55 AM 28.4 °F 15.4 °F 26.6 °F 93% 29.73 in 10.0 mi SE 19.6 mph 26.5 mph N/A   Mostly Cloudy
4:15 AM 28.4 °F 16.2 °F 26.6 °F 93% 29.74 in 10.0 mi ESE 17.3 mph 25.3 mph N/A   Mostly Cloudy
4:35 AM 28.4 °F 17.0 °F 26.6 °F 93% 29.75 in 10.0 mi ESE 15.0 mph 20.7 mph N/A   Overcast
4:55 AM 28.4 °F 16.6 °F 26.6 °F 93% 29.76 in 10.0 mi ESE 16.1 mph 21.9 mph N/A   Overcast
5:15 AM 28.4 °F 15.8 °F 26.6 °F 93% 29.75 in 10.0 mi SE 18.4 mph 25.3 mph N/A   Overcast
5:35 AM 28.4 °F 15.4 °F 26.6 °F 93% 29.75 in 10.0 mi SE 19.6 mph 25.3 mph N/A   Overcast
5:55 AM 28.4 °F 15.8 °F 26.6 °F 93% 29.75 in 10.0 mi SE 18.4 mph 25.3 mph N/A   Mostly Cloudy
6:15 AM 28.4 °F 15.8 °F 26.6 °F 93% 29.76 in 10.0 mi SE 18.4 mph - N/A   Overcast
6:35 AM 28.4 °F 16.2 °F 26.6 °F 93% 29.74 in 10.0 mi SE 17.3 mph - N/A   Mostly Cloudy
6:55 AM 28.4 °F 16.6 °F 26.6 °F 93% 29.74 in 8.0 mi SE 16.1 mph 23.0 mph N/A   Overcast
7:15 AM 28.4 °F 15.8 °F 26.6 °F 93% 29.74 in 7.0 mi SE 18.4 mph 25.3 mph N/A   Mostly Cloudy
7:35 AM 28.4 °F 15.4 °F 28.4 °F 100% 29.73 in 7.0 mi SE 19.6 mph 26.5 mph N/A   Overcast
7:55 AM 28.4 °F 16.6 °F 28.4 °F 100% 29.75 in 7.0 mi SE 16.1 mph 24.2 mph N/A   Mostly Cloudy
8:15 AM 28.4 °F 17.0 °F 28.4 °F 100% 29.77 in 7.0 mi ESE 15.0 mph - N/A   Overcast
8:35 AM 30.2 °F 19.8 °F 28.4 °F 93% 29.76 in 7.0 mi ESE 13.8 mph - N/A   Overcast
8:55 AM 30.2 °F 18.5 °F 28.4 °F 93% 29.76 in 7.0 mi ESE 17.3 mph - N/A   Overcast
9:15 AM 30.2 °F 18.5 °F 30.2 °F 100% 29.76 in 6.0 mi SE 17.3 mph - N/A   Overcast
9:35 AM 32.0 °F 21.2 °F 30.2 °F 93% 29.76 in 6.0 mi ESE 16.1 mph 21.9 mph N/A   Overcast
9:55 AM 32.0 °F 20.5 °F 30.2 °F 93% 29.77 in 7.0 mi SE 18.4 mph - N/A   Overcast
10:15 AM 32.0 °F 21.2 °F 30.2 °F 93% 29.78 in 7.0 mi SE 16.1 mph - N/A   Overcast
10:35 AM 32.0 °F 21.6 °F 30.2 °F 93% 29.78 in 8.0 mi ESE 15.0 mph - N/A   Overcast
10:55 AM 32.0 °F 21.2 °F 30.2 °F 93% 29.78 in 8.0 mi SE 16.1 mph - N/A   Overcast
11:15 AM 33.8 °F 23.5 °F 30.2 °F 87% 29.78 in 9.0 mi ESE 16.1 mph - N/A   Overcast
11:35 AM 33.8 °F 23.2 °F 30.2 °F 87% 29.78 in 8.0 mi ESE 17.3 mph - N/A   Overcast
11:55 AM 33.8 °F 23.9 °F 30.2 °F 87% 29.77 in 9.0 mi ESE 15.0 mph - N/A   Overcast
12:15 PM 33.8 °F 24.3 °F 30.2 °F 87% 29.78 in 9.0 mi ESE 13.8 mph - N/A   Overcast
12:55 PM 35.6 °F 27.5 °F 32.0 °F 87% 29.78 in 9.0 mi ESE 11.5 mph - N/A   Overcast
1:15 PM 35.6 °F 28.0 °F 30.2 °F 81% 29.78 in 9.0 mi ESE 10.4 mph - N/A   Overcast
1:35 PM 35.6 °F 28.6 °F 30.2 °F 81% 29.78 in 9.0 mi ESE 9.2 mph - N/A   Overcast
1:55 PM 35.6 °F 28.0 °F 30.2 °F 81% 29.78 in 9.0 mi East 10.4 mph - N/A   Overcast
2:15 PM 35.6 °F 28.6 °F 32.0 °F 87% 29.79 in 9.0 mi East 9.2 mph - N/A   Overcast
2:35 PM 35.6 °F 28.0 °F 30.2 °F 81% 29.79 in 9.0 mi East 10.4 mph - N/A   Overcast
2:55 PM 35.6 °F 28.6 °F 30.2 °F 81% 29.79 in 9.0 mi East 9.2 mph - N/A   Overcast
3:15 PM 35.6 °F 28.6 °F 30.2 °F 81% 29.79 in 8.0 mi ENE 9.2 mph - N/A   Overcast
3:35 PM 33.8 °F 26.4 °F 32.0 °F 93% 29.80 in 8.0 mi ENE 9.2 mph - N/A   Overcast
3:55 PM 33.8 °F 26.4 °F 32.0 °F 93% 29.80 in 7.0 mi East 9.2 mph - N/A   Overcast
4:15 PM 33.8 °F 26.4 °F 32.0 °F 93% 29.81 in 7.0 mi ENE 9.2 mph - N/A   Overcast
4:35 PM 33.8 °F 25.8 °F 32.0 °F 93% 29.81 in 7.0 mi East 10.4 mph - N/A   Overcast
4:55 PM 33.8 °F 25.8 °F 32.0 °F 93% 29.81 in 7.0 mi East 10.4 mph - N/A   Overcast
5:15 PM 33.8 °F 26.4 °F 32.0 °F 93% 29.82 in 6.0 mi ENE 9.2 mph - N/A   Overcast
5:35 PM 33.8 °F 26.4 °F 32.0 °F 93% 29.84 in 7.0 mi ENE 9.2 mph - N/A   Overcast
5:55 PM 33.8 °F 28.6 °F 30.2 °F 87% 29.86 in 6.0 mi NE 5.8 mph - N/A   Overcast
6:15 PM 33.8 °F 29.6 °F 32.0 °F 93% 29.88 in 6.0 mi NE 4.6 mph - N/A   Overcast
6:35 PM 32.0 °F - 32.0 °F 100% 29.88 in 6.0 mi Calm Calm - N/A   Overcast
6:55 PM 32.0 °F - 32.0 °F 100% 29.90 in 7.0 mi Calm Calm - N/A   Overcast
7:15 PM 32.0 °F 27.5 °F 32.0 °F 100% 29.91 in 6.0 mi WNW 4.6 mph - N/A   Overcast
7:35 PM 32.0 °F 28.7 °F 32.0 °F 100% 29.93 in 2.0 mi NNW 3.5 mph - N/A   Light Drizzle
7:55 PM 32.0 °F 25.6 °F 32.0 °F 100% 29.95 in 1.8 mi WNW 6.9 mph - N/A   Light Drizzle
8:35 PM 32.0 °F 27.5 °F 32.0 °F 100% 29.95 in 1.2 mi NNW 4.6 mph - N/A   Light Drizzle
8:55 PM 32.0 °F 26.4 °F 32.0 °F 100% 29.96 in 1.8 mi NW 5.8 mph - N/A   Overcast
9:15 PM 32.0 °F 25.6 °F 32.0 °F 100% 29.96 in 2.0 mi NW 6.9 mph - N/A   Overcast
9:35 PM 32.0 °F 24.8 °F 32.0 °F 100% 29.94 in 2.0 mi North 8.1 mph - N/A   Overcast
9:55 PM 32.0 °F 26.4 °F 32.0 °F 100% 29.95 in 2.0 mi NNW 5.8 mph - N/A   Overcast
10:15 PM 32.0 °F 26.4 °F 32.0 °F 100% 29.95 in 2.5 mi NNW 5.8 mph - N/A   Overcast
10:35 PM 32.0 °F 24.8 °F 32.0 °F 100% 29.95 in 3.0 mi NNW 8.1 mph - N/A   Overcast
10:55 PM 32.0 °F 26.4 °F 32.0 °F 100% 29.94 in 3.0 mi NNW 5.8 mph - N/A   Overcast
11:15 PM 32.0 °F 24.8 °F 32.0 °F 100% 29.95 in 2.5 mi NW 8.1 mph - N/A   Overcast
11:35 PM 32.0 °F 24.2 °F 32.0 °F 100% 29.95 in 4.0 mi NW 9.2 mph - N/A   Overcast
11:55 PM 32.0 °F 24.2 °F 32.0 °F 100% 29.95 in 4.0 mi NW 9.2 mph - N/A   Overcast